User: anonymous   Login
Location: Ostrava
(49.8330°N, 18.2830°E)
Time: 07:20:12
(UTC+02:00)
Language:

Cosmos 2219 Rocket - Orbit

View from above orbital plane
View from above orbital plane
View from above satellite
View from above satellite

Ground track
Ground track

The orbit data is extracted from the following two-line orbital elements,

1 22220U 92076B   16176.90738706 -.00000170  00000-0 -61377-4 0  9991
2 22220  71.0007  91.2939 0010672  99.0177 327.6870 14.16397221220189
Epoch (UTC): 24 June 2016 21:46:38
Eccentricity: 0.0010672
inclination: 71.0007°
perigee height: 830 km
apogee height: 845 km
right ascension of ascending node: 91.2939°
argument of perigee: 99.0177°
revolutions per day: 14.16397221
mean anomaly at epoch: 327.6870°
orbit number at epoch: 22018

The dashed part of the orbit path shows where the satellite is in the earth's shadow,  

DLR